Location: Madrid
(40.4000°N, 3.6830°W)
Time: 23:57:55
(UTC+02:00)

ISS - Pass Details

Date: 22 May 2019
Orbit: 408 x 418 km, 51.6° (Epoch: 26 May)

Event Time Altitude Azimuth Distance (km) Brightness Sun altitude
Rises 02:41:16 0° 312° (NW) 2,361 0.5 -28.9°
Reaches altitude 10° 02:43:42 10° 329° (NNW) 1,497 -0.4 -28.8°
Enters shadow 02:44:46 16° 344° (NNW) 1,201 -0.8 -28.8°
